• In Hungary
  • List of Countries
  • For 7 days
  • Water Temperature
  • Satellite Maps
  • Weather Map
  • News
  • Weather Widgets
  • user-avatar
    Login

    Hourly Weather Oruro

    Today, 22 October, Monday

    Time Temperature Precipitation Wind Pressure Humidity
    00:00 +10°C° 0 mm 4 mps 475 mmHg 62%
    01:00 +8°C° 0 mm 4 mps 475 mmHg 63%
    02:00 +9°C° 0 mm 3 mps 475 mmHg 66%
    03:00 +9°C° 0 mm 3 mps 475 mmHg 67%
    04:00 +8°C° 0 mm 3 mps 474 mmHg 67%
    05:00 +8°C° 0 mm 3 mps 474 mmHg 68%
    06:00 +9°C° 0 mm 3 mps 475 mmHg 65%
    07:00 +9°C° 0 mm 2 mps 476 mmHg 61%
    08:00 +10°C° 0 mm 2 mps 477 mmHg 58%
    09:00 +12°C° 0 mm 2 mps 477 mmHg 52%
    10:00 +14°C° 0 mm 2 mps 478 mmHg 46%
    11:00 +15°C° 0 mm 2 mps 478 mmHg 40%
    12:00 +16°C° 0.2 mm 3 mps 478 mmHg 38%
    13:00 +17°C° 0.2 mm 3 mps 478 mmHg 36%
    14:00 +18°C° 0.2 mm 3 mps 478 mmHg 34%
    15:00 +17°C° 0.2 mm 4 mps 477 mmHg 37%
    16:00 +16°C° 0.2 mm 6 mps 477 mmHg 39%
    17:00 +15°C° 0.2 mm 7 mps 476 mmHg 42%
    18:00 +14°C° 0.1 mm 7 mps 476 mmHg 48%
    19:00 +11°C° 0.1 mm 7 mps 476 mmHg 53%
    20:00 +10°C° 0.1 mm 8 mps 475 mmHg 59%
    21:00 +10°C° 0 mm 7 mps 476 mmHg 60%
    22:00 +9°C° 0 mm 6 mps 476 mmHg 62%
    23:00 +9°C° 0 mm 5 mps 476 mmHg 63%

    Tomorrow, 23 October, Tuesday

    Time Temperature Precipitation Wind Pressure Humidity
    00:00 +10°C° 0.1 mm 4 mps 476 mmHg 64%
    01:00 +8°C° 0.1 mm 4 mps 475 mmHg 65%
    02:00 +9°C° 0.1 mm 3 mps 475 mmHg 66%
    03:00 +9°C° 0.2 mm 3 mps 475 mmHg 66%
    04:00 +9°C° 0.2 mm 3 mps 475 mmHg 67%
    05:00 +9°C° 0.2 mm 3 mps 475 mmHg 68%
    06:00 +9°C° 0.3 mm 3 mps 475 mmHg 66%
    07:00 +9°C° 0.3 mm 3 mps 476 mmHg 64%
    08:00 +10°C° 0.3 mm 3 mps 476 mmHg 63%
    09:00 +11°C° 0.2 mm 4 mps 477 mmHg 58%
    10:00 +12°C° 0.2 mm 4 mps 477 mmHg 54%
    11:00 +13°C° 0.2 mm 4 mps 478 mmHg 49%
    12:00 +13°C° 0.2 mm 4 mps 477 mmHg 47%
    13:00 +14°C° 0.2 mm 5 mps 477 mmHg 45%
    14:00 +15°C° 0.2 mm 5 mps 477 mmHg 43%
    15:00 +14°C° 0.1 mm 5 mps 477 mmHg 44%
    16:00 +14°C° 0.1 mm 5 mps 476 mmHg 45%
    17:00 +14°C° 0.1 mm 5 mps 476 mmHg 46%
    18:00 +13°C° 0.1 mm 5 mps 476 mmHg 51%
    19:00 +12°C° 0.1 mm 5 mps 476 mmHg 56%
    20:00 +10°C° 0.1 mm 5 mps 476 mmHg 60%
    21:00 +9°C° 0.2 mm 5 mps 476 mmHg 63%
    22:00 +10°C° 0.2 mm 4 mps 476 mmHg 66%
    23:00 +8°C° 0.2 mm 4 mps 476 mmHg 69%

    Day after tomorrow, 24 October, Wednesday

    Time Temperature Precipitation Wind Pressure Humidity
    00:00 +9°C° 0.2 mm 3 mps 476 mmHg 70%
    01:00 +9°C° 0.2 mm 3 mps 475 mmHg 71%
    02:00 +8°C° 0.2 mm 3 mps 475 mmHg 73%
    03:00 +8°C° 0 mm 2 mps 475 mmHg 73%
    04:00 +8°C° 0 mm 2 mps 475 mmHg 74%
    05:00 +8°C° 0 mm 2 mps 474 mmHg 74%
    06:00 +8°C° 0 mm 2 mps 475 mmHg 69%
    07:00 +9°C° 0 mm 3 mps 476 mmHg 64%
    08:00 +10°C° 0 mm 3 mps 477 mmHg 60%
    09:00 +11°C° 0 mm 3 mps 477 mmHg 52%
    10:00 +12°C° 0 mm 3 mps 478 mmHg 45%
    11:00 +14°C° 0 mm 3 mps 479 mmHg 37%
    12:00 +14°C° 0.1 mm 3 mps 478 mmHg 35%
    13:00 +16°C° 0.1 mm 2 mps 478 mmHg 33%
    14:00 +16°C° 0.1 mm 2 mps 478 mmHg 31%
    15:00 +16°C° 0.1 mm 3 mps 477 mmHg 33%
    16:00 +16°C° 0.1 mm 3 mps 477 mmHg 34%
    17:00 +15°C° 0.1 mm 4 mps 477 mmHg 36%
    18:00 +14°C° 0.2 mm 5 mps 476 mmHg 43%
    19:00 +12°C° 0.2 mm 5 mps 476 mmHg 51%
    20:00 +10°C° 0.2 mm 6 mps 476 mmHg 58%
    21:00 +10°C° 0 mm 5 mps 476 mmHg 61%
    22:00 +9°C° 0 mm 5 mps 476 mmHg 63%
    23:00 +8°C° 0 mm 4 mps 476 mmHg 65%

    25 October, Thursday

    Time Temperature Precipitation Wind Pressure Humidity
    00:00 +9°C° 0 mm 3 mps 476 mmHg 66%
    01:00 +9°C° 0 mm 3 mps 475 mmHg 66%
    02:00 +9°C° 0 mm 3 mps 475 mmHg 67%
    03:00 +9°C° 0 mm 2 mps 475 mmHg 66%
    04:00 +8°C° 0 mm 2 mps 475 mmHg 66%
    05:00 +8°C° 0 mm 2 mps 475 mmHg 65%
    06:00 +9°C° 0 mm 2 mps 475 mmHg 63%
    07:00 +9°C° 0 mm 2 mps 476 mmHg 60%
    08:00 +10°C° 0 mm 2 mps 477 mmHg 58%
    09:00 +12°C° 0 mm 2 mps 477 mmHg 53%
    10:00 +13°C° 0 mm 2 mps 478 mmHg 47%
    11:00 +14°C° 0 mm 2 mps 478 mmHg 42%
    12:00 +15°C° 0.2 mm 2 mps 478 mmHg 41%
    13:00 +15°C° 0.2 mm 2 mps 477 mmHg 41%
    14:00 +16°C° 0.2 mm 3 mps 477 mmHg 40%
    15:00 +14°C° 0.5 mm 3 mps 476 mmHg 43%
    16:00 +14°C° 0.5 mm 4 mps 476 mmHg 46%
    17:00 +13°C° 0.5 mm 4 mps 475 mmHg 48%
    18:00 +12°C° 0.6 mm 5 mps 475 mmHg 54%
    19:00 +10°C° 0.6 mm 5 mps 475 mmHg 59%
    20:00 +9°C° 0.6 mm 5 mps 475 mmHg 64%
    21:00 +9°C° 0.4 mm 5 mps 475 mmHg 65%
    22:00 +8°C° 0.4 mm 4 mps 475 mmHg 66%
    23:00 +8°C° 0.4 mm 4 mps 476 mmHg 67%

    26 October, Friday

    Time Temperature Precipitation Wind Pressure Humidity
    00:00 +9°C° 0.1 mm 3 mps 475 mmHg 66%
    01:00 +9°C° 0.1 mm 3 mps 475 mmHg 66%
    02:00 +9°C° 0.1 mm 2 mps 474 mmHg 66%
    03:00 +9°C° 0 mm 2 mps 474 mmHg 67%
    04:00 +8°C° 0 mm 2 mps 474 mmHg 67%
    05:00 +8°C° 0 mm 2 mps 474 mmHg 68%
    06:00 +9°C° 0 mm 2 mps 475 mmHg 66%
    07:00 +9°C° 0 mm 2 mps 476 mmHg 63%
    08:00 +10°C° 0 mm 2 mps 477 mmHg 61%
    09:00 +11°C° 0 mm 3 mps 477 mmHg 55%
    10:00 +12°C° 0 mm 3 mps 478 mmHg 50%
    11:00 +13°C° 0 mm 3 mps 478 mmHg 44%
    12:00 +14°C° 0.3 mm 3 mps 478 mmHg 43%
    13:00 +14°C° 0.3 mm 4 mps 478 mmHg 42%
    14:00 +15°C° 0.3 mm 4 mps 477 mmHg 41%
    15:00 +14°C° 0.7 mm 4 mps 477 mmHg 44%
    16:00 +14°C° 0.7 mm 5 mps 476 mmHg 47%
    17:00 +13°C° 0.7 mm 5 mps 476 mmHg 50%
    18:00 +12°C° 1.7 mm 5 mps 475 mmHg 57%
    19:00 +9°C° 1.7 mm 5 mps 475 mmHg 64%
    20:00 +8°C° 1.7 mm 4 mps 475 mmHg 72%
    21:00 +8°C° 0.9 mm 4 mps 475 mmHg 69%
    22:00 +8°C° 0.9 mm 4 mps 476 mmHg 67%
    23:00 +8°C° 0.9 mm 4 mps 476 mmHg 65%

    27 October, Saturday

    Time Temperature Precipitation Wind Pressure Humidity
    00:00 +8°C° 0.1 mm 4 mps 476 mmHg 66%
    01:00 +9°C° 0.1 mm 3 mps 475 mmHg 66%
    02:00 +9°C° 0.1 mm 3 mps 475 mmHg 67%
    03:00 +8°C° 0 mm 3 mps 475 mmHg 69%
    04:00 +8°C° 0 mm 3 mps 474 mmHg 71%
    05:00 +8°C° 0 mm 3 mps 474 mmHg 73%
    06:00 +8°C° 0 mm 3 mps 475 mmHg 68%
    07:00 +9°C° 0 mm 3 mps 476 mmHg 63%
    08:00 +10°C° 0 mm 3 mps 477 mmHg 58%
    09:00 +11°C° 0 mm 3 mps 478 mmHg 52%
    10:00 +12°C° 0 mm 4 mps 478 mmHg 46%
    11:00 +14°C° 0 mm 4 mps 479 mmHg 40%
    12:00 +14°C° 0 mm 4 mps 478 mmHg 40%
    13:00 +14°C° 0 mm 4 mps 478 mmHg 40%
    14:00 +15°C° 0 mm 4 mps 478 mmHg 40%
    15:00 +14°C° 0.4 mm 4 mps 477 mmHg 43%
    16:00 +14°C° 0.4 mm 4 mps 476 mmHg 47%
    17:00 +13°C° 0.4 mm 5 mps 476 mmHg 50%
    18:00 +12°C° 0.3 mm 4 mps 476 mmHg 54%
    19:00 +11°C° 0.3 mm 4 mps 476 mmHg 58%
    20:00 +10°C° 0.3 mm 4 mps 476 mmHg 63%
    21:00 +10°C° 0 mm 4 mps 476 mmHg 64%
    22:00 +8°C° 0 mm 4 mps 476 mmHg 66%
    23:00 +8°C° 0 mm 4 mps 476 mmHg 68%

    28 October, Sunday

    Time Temperature Precipitation Wind Pressure Humidity
    00:00 +8°C° 0 mm 3 mps 475 mmHg 69%
    01:00 +8°C° 0 mm 3 mps 475 mmHg 70%
    02:00 +7°C° 0 mm 3 mps 474 mmHg 71%
    03:00 +7°C° 0 mm 3 mps 474 mmHg 72%
    04:00 +6°C° 0 mm 2 mps 474 mmHg 73%
    05:00 +6°C° 0 mm 2 mps 474 mmHg 74%
    06:00 +7°C° 0 mm 2 mps 474 mmHg 66%
    07:00 +7°C° 0 mm 2 mps 475 mmHg 57%
    08:00 +8°C° 0 mm 2 mps 476 mmHg 48%
    09:00 +10°C° 0 mm 2 mps 477 mmHg 38%
    10:00 +13°C° 0 mm 2 mps 478 mmHg 28%
    11:00 +15°C° 0 mm 2 mps 478 mmHg 18%
    12:00 +16°C° 0 mm 2 mps 478 mmHg 16%
    13:00 +17°C° 0 mm 2 mps 478 mmHg 13%
    14:00 +18°C° 0 mm 2 mps 479 mmHg 11%
    15:00 +18°C° 0 mm 2 mps 478 mmHg 10%
    16:00 +18°C° 0 mm 3 mps 478 mmHg 10%
    17:00 +18°C° 0 mm 3 mps 478 mmHg 10%
    18:00 +17°C° 0 mm 3 mps 478 mmHg 15%
    19:00 +14°C° 0 mm 3 mps 477 mmHg 21%
    20:00 +13°C° 0 mm 3 mps 477 mmHg 27%
    21:00 +12°C° 0 mm 3 mps 477 mmHg 35%
    22:00 +11°C° 0 mm 3 mps 477 mmHg 42%
    23:00 +10°C° 0 mm 2 mps 476 mmHg 50%
    Show more